Flag for Switzerland Weather past 2 weeks in Schaffhausen, Schaffhausen, Switzerland

Now
31 °F

Chilly.


Feels Like: 31 °F
Forecast: 29 / 47 °F
Wind: 2 mph from Southeast

Location: Zurich-Kloten

Current Time: Dec 22, 2014 at 9:15:54 AM

Latest Report: Dec 22, 2014 at 8:00 AM


Visibility: N/A

Pressure: 30.52 "Hg

Humidity: 91%

Dew point: 29 °F

Location of SchaffhausenLocation

Historic Weather in Schaffhausen — Graph

°F

Schaffhausen temperature yesterday

Maximum temperature yesterday: 43 °F (at 1:00 PM)
Minimum temperature yesterday: 33 °F (at 9:00 PM)
Average temperature yesterday: 39 °F

Past Weeks' High & Low Weather Summary

 TemperatureHumidityPressure
High54 °F (Dec 19, 1:00 PM)100% (Dec 9, 4:00 AM)30.60 "Hg (Dec 9, 4:00 AM)
Low29 °F (Dec 9, 11:00 PM)42% (Dec 13, 2:00 PM)29.85 "Hg (Dec 12, 8:00 PM)
Average42 °F81%30.18 "Hg
* Reported Dec 7 8:00 AM — Dec 22 8:00 AM, Schaffhausen, Weather by CustomWeather, © 2014

Note: Actual official high and low records may vary slightly from our data, if they occured in-between our weather recording intervals... More about our weather records

Advertising

Schaffhausen weather history for previous 24 hours

 ConditionsComfort  
Time TempWeatherWind HumidityBarometerVisibility
8:00 AM
Dec 22
31 °FChilly.2 mph91%30.52 "HgN/A
7:00 AM31 °FPassing clouds.3 mph91%30.52 "Hg11 mi
6:00 AM34 °FChilly.5 mph86%30.51 "HgN/A
5:00 AM34 °FChilly.5 mph85%30.52 "HgN/A
3:00 AM33 °FChilly.2 mph87%30.53 "HgN/A
2:00 AM33 °FChilly.3 mph86%30.54 "HgN/A
1:00 AM34 °FPassing clouds.3 mph85%30.55 "Hg12 mi
12:00 AM33 °FChilly.6 mph87%30.56 "HgN/A
11:00 PM
Dec 21
35 °FChilly.2 mph85%30.56 "HgN/A
9:00 PM33 °FChilly.6 mph90%30.58 "HgN/A
8:00 PM36 °FChilly.6 mph85%30.59 "HgN/A
7:00 PM36 °FPassing clouds.6 mph85%30.58 "Hg19 mi
6:00 PM38 °FChilly.1 mph81%30.57 "HgN/A
5:00 PM40 °FChilly.3 mph78%30.55 "HgN/A
4:00 PM42 °FPartly sunny.3 mph74%30.55 "Hg22 mi
3:00 PM42 °FQuite cool.3 mph77%30.55 "HgN/A
2:00 PM43 °FQuite cool.7 mph70%30.57 "HgN/A
1:00 PM43 °FOvercast.5 mph68%30.57 "Hg19 mi
12:00 PM42 °FQuite cool.6 mph72%30.59 "HgN/A
11:00 AM42 °FQuite cool.5 mph70%30.60 "HgN/A
10:00 AM41 °FPartly sunny.5 mph76%30.59 "Hg19 mi
9:00 AM39 °FChilly.2 mph82%30.60 "HgN/A
Weather by CustomWeather, © 2014

See weather overviewHow to use our weather pages